Change the Weather History Date:

Tuesday, July 2, 2013

  Actual Average Record
Temperature  
Mean Temperature 32 °F -  
Max Temperature 37 °F 40 °F 68 °F (2012)
Min Temperature 28 °F 33 °F 28 °F (2013)
Degree Days  
Heating Degree Days 32    
Moisture  
Dew Point 29 °F    
Average Humidity 83    
Maximum Humidity 93    
Minimum Humidity 70    
Precipitation  
Precipitation 0.00 in - - ()
Sea Level Pressure  
Sea Level Pressure 29.73 in    
Wind  
Wind Speed 19 mph ()    
Max Wind Speed 28 mph    
Max Gust Speed 33 mph    
Visibility 12.8 miles    
Events Snow    
Averages and records for this station are not official NWS values.
T = Trace of Precipitation, MM = Missing Value Source: Averaged Metar Reports

Daily Weather History Graph

Daily Weather History Graph

Search for Another Location

Airport or City:

Trip Planner

Search our weather history database for the weather conditions in past years. The results will help you decide how hot, cold, wet, or windy it might be!

Date:

Astronomy

Dec. 31, 1969 Rise Set
Actual Time Sun does not rise Sun does not rise
Civil Twilight Sun does not rise Sun does not rise
Nautical Twilight Sun does not rise Sun does not rise
Astronomical Twilight Sun does not rise Sun does not rise
Moon No Moon Rise No Moon Set
Length of Visible Light 24h 00m
Length of Day
24h 00m
Waning Crescent, 26% of the Moon is Illuminated
Jul 2
Waning Crescent
Jul 8
New
Jul 15
First Quarter
Jul 22
Full
Jul 29
Last Quarter

Hourly Weather History & Observations

Time (CDT) Temp. Windchill Dew Point Humidity Pressure Visibility Wind Dir Wind Speed Gust Speed Precip Events Conditions
12:00 AM 32.0 °F 20.8 °F 30.2 °F 93% 29.70 in 8.0 mi NW 17.3 mph - N/A Snow Light Snow
1:00 AM 30 °F - 28 °F 87% 29.69 in 5 mi NW 20.7 mph - - Snow Light Snow
1:00 AM 30.2 °F 17.4 °F 28.4 °F 93% 29.69 in 5.0 mi NW 20.7 mph - N/A Snow Light Snow
2:00 AM 30.2 °F 17.4 °F 26.6 °F 86% 29.70 in 10.0 mi NW 20.7 mph - N/A Snow Light Snow
3:00 AM 30.2 °F 18.5 °F 26.6 °F 86% 29.70 in 15.0 mi NW 17.3 mph - N/A Snow Light Snow
4:00 AM 30.2 °F 17.1 °F 28.4 °F 93% 29.70 in 10.0 mi NNW 21.9 mph - N/A Snow Light Snow
4:21 AM - - - N/A% - 8.0 mi North 23.0 mph - N/A   Unknown
5:00 AM 30.2 °F 16.5 °F 26.6 °F 86% 29.70 in 8.0 mi NNW 24.2 mph - N/A Snow Light Snow
6:00 AM 30.2 °F 15.9 °F 24.8 °F 80% 29.72 in 10.0 mi NNW 26.5 mph 32.2 mph N/A Snow Light Snow Showers
7:00 AM 29 °F - 26 °F 84% 29.72 in 10 mi NNW 25.3 mph - - Snow Light Snow Showers
7:00 AM 28.4 °F 13.8 °F 26.6 °F 93% 29.72 in 10.0 mi NNW 25.3 mph - N/A Snow Light Snow Showers
8:00 AM 30.2 °F 15.7 °F 26.6 °F 86% 29.72 in 15.0 mi NNW 27.6 mph 33.4 mph N/A Snow Light Snow Showers
8:45 AM - - - N/A% - 15.0 mi NNW 24.2 mph - N/A   Unknown
9:00 AM 30.2 °F 16.8 °F 28.4 °F 93% 29.73 in 15.0 mi North 23.0 mph 31.1 mph N/A Snow Light Snow Showers
9:43 AM - - - N/A% - 15.0 mi NNW 20.7 mph - N/A   Mostly Cloudy
10:00 AM 32.0 °F 19.2 °F 30.2 °F 93% 29.73 in 15.0 mi NNW 23.0 mph 29.9 mph N/A   Mostly Cloudy
11:00 AM 33.8 °F 21.6 °F 30.2 °F 87% 29.73 in 15.0 mi North 23.0 mph - N/A   Mostly Cloudy
12:00 PM 35.6 °F 24.5 °F 30.2 °F 81% 29.74 in 15.0 mi North 20.7 mph - N/A   Scattered Clouds
1:00 PM 35.6 °F 24.0 °F 30.2 °F 81% 29.75 in 15.0 mi North 23.0 mph 28.8 mph N/A   Partly Cloudy
2:00 PM 37.4 °F 26.1 °F 30.2 °F 75% 29.74 in 15.0 mi NNW 24.2 mph - N/A   Partly Cloudy
3:00 PM 37.4 °F 26.9 °F 30.2 °F 75% 29.76 in 15.0 mi NNW 20.7 mph - N/A   Partly Cloudy
4:00 PM 35.6 °F 23.7 °F 30.2 °F 81% 29.76 in 15.0 mi North 24.2 mph - N/A   Partly Cloudy
5:00 PM 37.4 °F 28.2 °F 30.2 °F 75% 29.76 in 15.0 mi NNW 16.1 mph - N/A   Partly Cloudy
6:00 PM 37.4 °F 26.4 °F 28.4 °F 70% 29.76 in 15.0 mi North 23.0 mph - N/A   Partly Cloudy
7:00 PM 37 °F - 31 °F 70% 29.77 in 15 mi North 21.9 mph - -   Scattered Clouds
7:00 PM 37.4 °F 26.6 °F 30.2 °F 75% 29.77 in 15.0 mi North 21.9 mph - N/A   Partly Cloudy
8:00 PM 37.4 °F 27.2 °F 30.2 °F 75% 29.76 in 15.0 mi North 19.6 mph - N/A   Scattered Clouds
9:00 PM 35.6 °F 24.5 °F 30.2 °F 81% 29.76 in 15.0 mi North 20.7 mph - N/A   Scattered Clouds
10:00 PM 35.6 °F 24.0 °F 30.2 °F 81% 29.75 in 15.0 mi North 23.0 mph - N/A   Mostly Cloudy
11:00 PM 33.8 °F 22.8 °F 30.2 °F 87% 29.75 in 15.0 mi North 18.4 mph - N/A   Scattered Clouds